Location: ??
(35.5052°N, 139.7262°E)
Time: 18:17:13
(UTC+00:00)

Nadezhda 4 Rocket - Pass Details

Date: 20 June 2021
Orbit: 950 x 991 km, 82.9° (Epoch: 29 July)

Event Time Altitude Azimuth Distance (km) Brightness Sun altitude
Exits shadow 16:11:57 58° 266° (W) 1,107 4.0 -27.4°
Maximum altitude 16:12:14 58° 279° (W) 1,101 4.1 -27.4°
Drops below altitude 10° 16:18:16 10° 358° (N) 2,683 7.1 -26.9°
Sets 16:20:49 0° 2° (N) 3,630 8.0 -26.7°
